Total_Precipitation_Accumulation
0.04 0.05 0.12 0.13 0.08 0.05 0.06 0.10 0.12 0.12 0.11 0.11 0.11 0.10 0.08 0.05 0.03 0.02 0.02 0.02 0.02 0.03 0.04 0.04 0.04 0.06 0.06 0.06 0.07 0.08 0.09 0.12 0.19 0.23 0.29 0.36 0.51 0.66 0.83 1.04 1.20 1.10 0.84
0.01 0.03 0.11 0.15 0.12 0.09 0.08 0.10 0.13 0.14 0.13 0.13 0.12 0.12 0.10 0.07 0.04 0.03 0.02 0.02 0.02 0.03 0.03 0.04 0.04 0.04 0.04 0.04 0.05 0.05 0.08 0.15 0.22 0.30 0.44 0.52 0.62 0.77 0.87 1.00 1.18 0.93 0.68
0.01 0.01 0.06 0.12 0.12 0.10 0.09 0.11 0.12 0.13 0.13 0.12 0.11 0.11 0.08 0.05 0.04 0.02 0.02 0.02 0.02 0.03 0.03 0.04 0.04 0.03 0.03 0.03 0.04 0.06 0.11 0.18 0.28 0.46 0.69 0.73 0.50 0.67 0.77 0.93 1.00 0.63 0.53
0.01 0.01 0.02 0.09 0.11 0.10 0.10 0.11 0.12 0.11 0.10 0.10 0.09 0.08 0.06 0.04 0.04 0.03 0.03 0.02 0.03 0.04 0.04 0.04 0.04 0.03 0.02 0.02 0.03 0.07 0.12 0.20 0.33 0.63 0.83 0.75 0.50 0.47 0.60 0.60 0.64 0.52 0.49
0.02 0.01 0.03 0.07 0.09 0.10 0.10 0.10 0.10 0.09 0.08 0.08 0.07 0.07 0.05 0.04 0.04 0.04 0.03 0.03 0.04 0.05 0.06 0.06 0.05 0.04 0.03 0.03 0.05 0.09 0.16 0.27 0.43 0.59 0.57 0.67 0.72 0.51 0.46 0.45 0.52 0.49 0.41
0.03 0.02 0.04 0.07 0.09 0.10 0.10 0.10 0.09 0.08 0.07 0.07 0.07 0.06 0.04 0.03 0.04 0.04 0.04 0.05 0.06 0.07 0.08 0.07 0.07 0.06 0.05 0.04 0.06 0.11 0.19 0.33 0.47 0.42 0.38 0.45 0.50 0.49 0.44 0.44 0.43 0.41 0.31
0.02 0.02 0.04 0.09 0.12 0.13 0.12 0.12 0.11 0.10 0.08 0.07 0.07 0.06 0.04 0.04 0.05 0.06 0.07 0.07 0.08 0.10 0.10 0.09 0.09 0.09 0.09 0.07 0.08 0.12 0.22 0.36 0.40 0.38 0.39 0.44 0.43 0.42 0.48 0.51 0.46 0.35 0.27
0.04 0.03 0.05 0.10 0.13 0.15 0.15 0.15 0.14 0.12 0.10 0.09 0.08 0.07 0.06 0.07 0.07 0.08 0.10 0.11 0.11 0.12 0.10 0.10 0.10 0.09 0.09 0.09 0.10 0.14 0.21 0.29 0.32 0.33 0.35 0.40 0.44 0.41 0.56 0.53 0.44 0.34 0.28
0.12 0.06 0.06 0.08 0.11 0.15 0.18 0.18 0.16 0.13 0.12 0.11 0.09 0.07 0.06 0.06 0.07 0.08 0.11 0.13 0.15 0.15 0.13 0.12 0.12 0.12 0.13 0.13 0.13 0.15 0.19 0.23 0.32 0.47 0.46 0.37 0.41 0.46 0.71 0.65 0.51 0.44 0.38
0.21 0.12 0.09 0.12 0.18 0.19 0.19 0.19 0.19 0.16 0.14 0.11 0.09 0.07 0.07 0.07 0.11 0.15 0.16 0.18 0.21 0.23 0.22 0.22 0.23 0.25 0.25 0.22 0.21 0.22 0.26 0.25 0.33 0.53 0.47 0.32 0.38 0.56 0.82 0.81 0.70 0.65 0.56
0.26 0.20 0.20 0.23 0.25 0.29 0.29 0.27 0.27 0.27 0.26 0.22 0.22 0.21 0.20 0.25 0.34 0.46 0.44 0.48 0.45 0.45 0.47 0.46 0.47 0.50 0.47 0.35 0.37 0.41 0.32 0.27 0.46 0.57 0.44 0.35 0.44 0.69 0.85 0.91 0.83 0.74 0.71
0.51 0.46 0.41 0.38 0.33 0.32 0.35 0.51 0.60 0.60 0.65 0.61 0.66 0.64 0.63 0.64 0.61 0.58 0.75 0.83 0.88 0.96 0.96 0.95 1.08 0.94 0.69 0.50 0.66 0.73 0.40 0.33 0.42 0.47 0.37 0.40 0.52 0.76 0.93 0.93 0.87 0.79 0.76
0.76 0.66 0.52 0.50 0.52 0.58 0.69 0.73 0.81 0.90 1.02 1.12 1.17 1.16 1.21 1.07 0.91 0.85 1.10 1.25 1.22 1.22 1.12 1.39 1.59 1.18 1.08 1.11 1.11 0.98 0.74 0.62 0.61 0.55 0.56 0.63 0.72 0.94 1.09 0.98 0.92 0.87 0.75
1.05 1.05 0.97 0.86 0.85 0.89 0.90 0.85 0.87 0.88 0.98 1.06 1.16 1.25 1.41 1.42 1.30 1.32 1.44 1.32 1.28 1.31 1.49 1.58 1.70 1.51 1.42 1.41 1.36 1.35 1.28 0.99 0.88 0.85 0.95 1.04 1.07 1.16 1.25 1.19 1.10 1.00 0.91
1.54 1.61 1.77 1.49 1.28 1.18 1.02 0.89 0.85 0.83 0.79 0.78 0.88 1.12 1.30 1.40 1.46 1.55 1.39 1.23 1.09 1.36 1.64 1.69 1.55 1.64 1.64 1.72 1.69 1.67 1.65 1.31 1.12 1.09 1.14 1.37 1.35 1.28 1.34 1.42 1.37 1.25 1.21
2.10 2.11 2.15 2.09 1.79 1.47 1.19 0.99 0.90 0.79 0.79 0.81 0.88 0.98 1.16 1.26 1.34 1.39 1.33 1.23 1.18 1.34 1.53 1.57 1.55 1.73 1.79 1.75 1.45 1.37 1.35 1.36 1.24 1.03 1.14 1.33 1.37 1.22 1.25 1.43 1.50 1.46 1.49
2.61 2.70 2.71 2.63 2.33 2.04 1.74 1.36 1.07 0.95 0.89 0.92 0.95 0.88 0.92 1.02 1.05 1.16 1.18 1.15 1.19 1.25 1.30 1.28 1.29 1.48 1.45 1.33 1.18 1.13 1.16 1.15 1.15 1.14 1.02 1.05 1.19 1.25 1.16 1.26 1.36 1.38 1.47
3.18 3.48 3.47 3.16 2.85 2.40 1.96 1.63 1.38 1.26 1.16 1.01 0.92 0.79 0.68 0.73 0.80 0.87 0.85 0.89 0.95 1.00 1.01 0.98 1.01 1.11 1.17 1.26 1.25 1.10 1.16 1.16 1.08 1.20 1.21 1.05 1.10 1.09 1.31 1.41 1.38 1.31 1.41
4.32 4.69 4.36 3.67 3.20 2.57 1.95 1.61 1.50 1.48 1.34 1.15 1.03 0.87 0.71 0.67 0.71 0.76 0.74 0.74 0.72 0.74 0.76 0.73 0.81 0.91 0.96 1.03 0.99 1.01 0.98 0.96 0.90 0.92 1.07 0.95 0.99 1.08 1.21 1.31 1.38 1.34 1.48
4.74 5.23 4.92 4.10 3.28 2.58 2.09 1.78 1.55 1.44 1.28 1.09 0.99 0.86 0.71 0.62 0.61 0.60 0.58 0.54 0.51 0.52 0.55 0.59 0.69 0.78 0.80 0.85 0.80 0.81 0.79 0.71 0.71 0.74 0.72 0.75 0.82 0.81 0.95 1.13 1.27 1.09 1.31
3.88 4.21 4.04 3.27 2.61 2.11 1.67 1.22 1.01 0.95 0.84 0.74 0.71 0.65 0.61 0.57 0.52 0.47 0.41 0.40 0.37 0.36 0.39 0.41 0.48 0.56 0.59 0.67 0.75 0.72 0.65 0.60 0.59 0.58 0.56 0.55 0.58 0.70 0.86 1.00 1.07 1.05 0.96
2.60 2.60 2.08 1.71 1.39 1.09 0.89 0.65 0.49 0.42 0.38 0.36 0.35 0.35 0.34 0.37 0.40 0.39 0.37 0.36 0.35 0.34 0.34 0.36 0.42 0.45 0.47 0.54 0.60 0.59 0.54 0.52 0.53 0.46 0.52 0.52 0.52 0.68 0.78 0.79 0.87 0.95 0.80
1.71 1.48 1.13 0.91 0.85 0.69 0.53 0.36 0.28 0.23 0.22 0.22 0.22 0.22 0.22 0.23 0.26 0.29 0.33 0.36 0.35 0.31 0.30 0.32 0.34 0.36 0.36 0.38 0.48 0.53 0.49 0.45 0.41 0.39 0.43 0.47 0.53 0.61 0.64 0.73 0.70 0.69 0.75
1.01 0.92 0.93 0.86 0.73 0.54 0.43 0.30 0.20 0.16 0.15 0.14 0.15 0.16 0.17 0.16 0.16 0.18 0.24 0.29 0.30 0.31 0.31 0.25 0.26 0.31 0.32 0.28 0.32 0.40 0.38 0.39 0.44 0.42 0.40 0.45 0.53 0.52 0.51 0.55 0.58 0.60 0.63
0.69 0.81 0.99 0.96 0.75 0.53 0.40 0.32 0.29 0.25 0.22 0.19 0.18 0.19 0.20 0.20 0.20 0.17 0.17 0.22 0.27 0.33 0.38 0.35 0.32 0.30 0.29 0.26 0.26 0.34 0.34 0.30 0.35 0.42 0.41 0.40 0.44 0.38 0.36 0.37 0.38 0.45 0.49
0.61 0.61 0.66 0.71 0.77 0.69 0.58 0.44 0.40 0.39 0.36 0.30 0.27 0.26 0.26 0.26 0.29 0.27 0.27 0.30 0.33 0.33 0.34 0.36 0.39 0.38 0.36 0.33 0.26 0.29 0.42 0.39 0.29 0.35 0.35 0.39 0.39 0.28 0.30 0.34 0.36 0.40 0.47